Wind_Speed
30 27 22 19 16 14 14 15 15 18 18 21 21 25 29 31 32 29 29 33 31 34 35 32 30 30 32 38 36 35 30 28 15 28 29 26 35 32 28 41 41 46 48
32 27 24 20 15 14 14 14 14 17 19 21 25 28 31 29 31 33 35 36 37 35 34 32 30 32 32 34 36 40 31 31 30 11 16 24 27 28 27 41 38 41 43
30 26 22 18 15 15 13 14 16 18 21 24 25 29 29 33 34 35 34 35 35 36 31 33 32 31 33 38 35 35 25 28 27 21 16 23 28 25 24 41 38 37 40
28 25 22 19 16 14 15 16 17 18 23 25 26 28 30 33 32 32 32 33 29 30 31 34 33 30 36 40 36 35 24 21 17 16 18 26 21 18 23 34 29 34 33
28 26 23 19 17 16 15 16 18 22 24 21 22 26 29 30 30 25 28 30 31 34 35 34 29 31 41 42 34 30 20 25 23 24 20 17 20 21 24 33 31 32 30
30 26 21 17 15 16 15 16 20 20 17 18 23 26 28 28 28 27 28 29 31 32 32 32 34 32 36 37 36 33 29 23 25 22 16 12 19 28 32 34 30 29 10
29 24 20 17 16 13 13 16 13 13 18 22 23 25 28 29 28 27 28 29 31 33 30 31 35 33 35 37 35 34 31 18 27 28 19 17 11 15 32 32 33 34 25
26 22 18 15 12 11 12 9 11 16 20 22 23 26 27 28 28 28 28 27 28 32 30 33 31 31 39 40 36 34 33 27 33 29 29 22 18 29 35 41 39 33 26
23 20 15 11 11 10 8 11 16 19 21 21 23 26 27 26 28 20 26 28 28 30 31 25 25 30 40 37 36 32 30 28 19 36 30 22 18 16 35 36 34 32 20
19 14 11 13 12 9 11 14 17 18 19 19 24 25 22 25 20 27 26 25 24 27 24 26 27 29 39 42 38 32 25 23 14 28 35 31 23 18 39 40 40 30 30
15 13 14 13 10 10 13 16 18 18 17 21 23 23 23 17 25 26 25 27 23 23 23 29 30 34 41 44 42 32 21 24 19 26 28 25 27 23 40 36 41 42 39
15 15 14 12 11 12 15 17 18 18 18 16 17 17 19 24 26 23 24 24 23 25 25 30 33 36 39 41 37 33 32 23 20 26 25 25 27 21 36 31 40 39 38
16 15 13 11 12 13 14 17 20 17 15 14 11 17 22 23 24 22 22 22 24 27 28 31 35 35 34 34 34 35 29 21 25 25 23 24 26 28 36 30 36 34 33
15 12 10 10 10 12 15 16 15 17 16 9 13 18 21 23 21 23 21 24 23 26 27 32 32 26 32 29 30 29 28 24 26 24 23 22 27 34 34 33 34 32 29
12 10 8 9 10 11 12 15 15 18 16 10 18 20 18 21 22 22 22 23 25 29 33 28 22 26 29 29 33 31 27 22 15 24 22 20 28 34 32 35 33 35 26
12 10 9 9 9 9 11 18 20 12 10 19 22 21 23 23 25 24 24 24 28 29 27 20 17 19 26 29 27 29 27 22 18 23 21 22 31 36 32 33 36 36 29
12 9 8 8 9 12 16 14 8 15 19 18 19 20 21 24 24 25 17 22 24 24 19 19 20 17 24 29 27 25 25 26 22 15 21 25 29 36 35 34 35 34 28
8 6 5 6 9 11 8 10 12 14 15 21 20 18 21 20 20 23 19 20 23 25 22 19 20 19 22 29 29 29 27 25 18 13 22 23 33 33 33 34 34 30 30
5 2 5 9 10 11 11 12 14 15 17 19 18 25 21 21 19 19 16 15 19 21 22 20 21 18 21 30 28 29 27 24 20 14 24 29 28 33 34 35 33 34 35
1 3 2 3 8 12 13 13 14 15 9 14 18 21 21 19 18 19 18 16 19 23 23 22 22 20 22 29 30 30 29 24 21 11 30 35 32 36 35 36 35 33 33
5 1 4 7 9 13 14 8 11 15 11 15 17 19 15 16 17 19 19 17 19 24 23 24 24 21 24 27 30 28 28 24 23 24 26 40 38 36 36 36 35 35 30
1 2 4 8 10 6 11 11 13 12 11 13 17 16 15 15 17 17 18 16 19 19 23 25 25 21 22 27 27 28 27 28 26 26 11 36 39 38 37 36 36 35 34
2 2 3 4 9 9 12 12 12 12 13 15 15 14 16 17 17 17 18 18 18 17 20 21 21 21 21 26 26 26 26 27 30 30 17 35 36 37 37 38 38 35 35
1 1 3 7 8 10 11 10 12 13 13 12 14 16 15 16 17 18 18 19 17 18 17 18 17 19 22 26 28 30 33 36 36 22 6 27 35 36 35 35 36 38 37
3 2 4 7 7 9 10 10 11 13 13 13 13 14 15 16 17 18 21 18 17 18 17 16 17 19 21 25 30 32 36 37 33 10 8 20 33 35 36 34 35 36 38
1 2 5 6 6 10 10 11 11 12 11 11 12 16 15 15 17 21 19 16 14 16 16 16 18 19 21 24 30 31 34 39 22 8 11 32 37 33 35 34 36 34 38
Wind_Direction
204 208 217 216 223 244 254 264 277 285 291 295 299 304 302 301 302 302 298 296 292 290 289 285 287 300 294 297 285 277 257 253 264 266 256 274 274 271 230 190 191 190 189
206 211 212 209 226 245 252 268 277 290 294 297 303 301 300 302 305 303 300 297 294 290 289 285 286 301 290 298 295 285 257 248 246 232 235 269 251 277 245 184 180 181 183
199 203 203 213 227 238 255 274 285 288 296 299 298 298 300 306 305 301 300 300 296 294 286 293 289 299 295 302 291 288 264 263 220 223 235 251 263 262 219 176 172 172 179
198 203 205 210 222 242 267 276 282 293 296 296 297 300 304 306 306 306 305 300 298 298 297 298 292 290 306 299 292 291 247 252 260 269 253 257 244 234 215 165 160 166 167
199 199 204 220 231 248 260 274 287 292 292 293 301 307 308 308 306 302 304 303 305 303 303 303 292 300 308 305 303 313 303 237 229 240 229 238 239 240 209 167 157 159 169
202 204 206 214 230 246 260 276 286 288 296 305 309 309 308 308 305 305 304 303 303 303 301 306 303 303 308 307 313 317 307 225 212 219 197 214 237 254 172 165 160 158 160
190 194 203 223 222 242 263 278 280 297 308 309 308 309 307 308 310 307 307 306 305 306 305 305 304 304 315 313 312 317 314 248 214 204 214 207 227 205 169 168 167 168 175
187 197 205 206 225 242 263 269 292 306 305 304 306 310 308 307 308 308 308 313 310 309 308 312 306 302 316 312 315 318 315 317 209 213 232 237 243 246 196 175 170 168 165
186 186 193 211 231 236 250 282 299 296 295 300 310 311 307 310 312 317 321 320 319 318 319 321 314 308 311 311 316 313 306 302 284 210 226 239 246 227 185 173 171 160 156
175 187 209 227 220 233 269 282 290 291 293 301 309 307 301 307 311 323 321 321 312 313 317 319 316 314 312 316 316 305 287 277 254 209 212 225 215 224 189 180 169 166 163
182 203 218 214 228 252 272 281 284 292 289 303 301 304 307 303 317 319 317 317 316 318 324 320 317 316 316 318 319 315 300 293 253 203 199 194 207 218 188 187 177 174 172
199 212 207 224 239 258 274 277 291 291 294 299 301 306 304 305 312 311 312 316 320 321 317 314 313 315 317 320 322 319 316 301 244 190 190 188 197 203 186 188 181 182 184
202 207 210 226 252 263 270 285 288 291 290 292 296 305 303 299 306 308 311 315 317 315 315 313 314 316 323 322 321 322 322 301 179 182 181 188 196 182 179 191 180 179 178
191 201 220 241 256 273 280 287 285 293 292 253 290 291 291 294 299 307 309 306 313 313 314 316 315 324 323 320 325 325 325 325 181 181 187 191 173 167 178 184 171 164 161
197 207 225 253 269 277 288 292 295 298 292 273 297 302 296 291 292 296 308 311 318 317 317 314 315 332 328 326 329 329 324 324 201 180 183 180 175 170 181 172 163 160 159
201 216 233 252 275 286 294 299 294 295 295 311 310 302 300 291 293 299 306 321 317 318 318 317 315 329 331 323 320 318 324 327 323 184 196 191 177 171 172 165 162 168 163
203 218 237 255 277 292 292 290 286 311 316 311 303 305 305 302 305 307 317 323 322 320 319 318 319 313 329 320 313 321 321 317 303 220 184 180 171 169 167 164 167 170 162
204 211 240 280 292 290 275 282 301 311 308 305 309 317 310 311 310 312 315 323 323 326 320 309 318 310 324 321 318 324 319 313 306 216 179 182 173 170 164 164 169 166 162
187 225 298 296 291 282 288 289 297 301 295 296 303 314 313 315 317 319 311 325 315 310 315 306 314 305 326 325 322 318 320 315 311 277 181 181 176 170 165 165 168 167 162
236 305 299 336 308 301 295 290 296 297 291 308 307 306 313 317 317 320 308 322 314 310 312 312 313 314 331 327 323 323 329 330 331 317 189 183 175 171 165 166 167 163 166
138 107 328 305 306 300 294 306 306 295 281 292 302 307 308 316 317 315 305 316 311 307 306 319 318 317 332 328 326 327 328 337 336 342 195 175 172 172 167 166 166 164 162
103 329 307 300 301 310 315 316 304 299 298 294 299 305 317 315 316 312 317 305 312 312 319 325 322 326 329 330 327 327 332 335 336 337 257 171 170 168 165 164 163 161 161
133 304 304 319 317 315 311 315 312 306 307 292 299 303 313 312 320 319 317 318 311 307 320 323 322 324 331 336 336 337 330 330 331 331 315 167 166 164 165 164 165 159 161
170 106 347 324 308 308 306 310 313 306 301 293 305 307 310 317 319 322 321 319 309 313 323 331 328 328 331 335 339 344 342 341 342 330 295 169 163 167 165 165 165 162 161
108 27 323 311 304 318 322 317 302 299 305 308 312 306 312 322 325 325 321 318 316 329 335 331 332 334 333 336 342 344 344 344 344 319 240 183 168 162 165 165 164 163 161
137 278 301 305 313 329 322 308 310 306 319 322 314 310 311 320 319 324 322 319 319 333 337 335 337 336 337 340 346 343 347 347 339 323 221 185 174 162 162 163 163 163 161
Height
778 782 786 789 791 793 794 794 794 794 793 792 790 789 787 785 782 779 777 774 770 767 765 762 758 754 750 744 735 729 724 723 715 715 719 720 720 719 715 719 725 733 743
772 776 780 784 787 789 789 790 790 790 789 787 786 784 782 778 776 773 769 766 763 759 756 753 749 746 740 733 727 716 710 714 716 710 716 717 716 713 710 713 721 730 739
766 771 775 779 782 784 785 786 786 784 783 782 780 778 775 772 769 765 761 758 755 752 749 746 741 737 731 723 716 707 698 697 701 707 706 710 712 706 701 708 717 726 736
761 766 770 774 777 779 780 781 780 779 778 777 775 772 769 766 762 758 755 751 748 745 742 738 733 728 724 713 703 695 688 687 681 681 692 700 699 703 700 705 714 723 733
756 761 765 769 772 774 775 775 775 774 772 771 769 767 764 761 756 752 749 745 741 738 735 730 726 721 714 706 697 689 687 687 688 689 688 688 691 695 694 698 708 719 733
750 755 761 765 767 769 770 770 770 769 767 766 763 761 758 754 751 748 744 739 734 731 727 723 717 712 706 697 690 681 675 675 679 684 685 688 686 684 685 694 705 716 730
745 751 755 759 762 764 765 765 765 764 763 761 758 755 752 748 745 743 739 734 728 724 721 716 709 703 699 690 682 675 666 662 667 672 674 680 684 681 684 693 701 711 721
740 746 750 754 756 758 760 761 761 760 758 756 753 750 747 743 740 737 733 728 723 718 715 711 705 698 691 685 678 670 662 659 659 662 667 670 674 674 683 686 696 709 721
735 741 746 749 752 753 755 756 756 755 753 750 747 744 741 738 735 732 729 724 719 713 708 705 702 694 686 681 674 667 662 656 656 657 661 667 671 675 681 688 695 702 715
733 738 742 745 747 749 750 751 751 749 747 744 741 739 736 733 730 727 725 720 714 709 703 698 694 691 678 668 668 661 655 653 653 655 660 663 667 670 675 681 686 697 709
730 735 738 740 743 744 746 745 745 744 742 739 737 734 733 730 726 723 720 715 710 705 700 693 689 682 672 664 655 650 646 644 644 647 651 655 661 665 671 677 683 690 698
727 731 734 736 739 741 741 741 740 738 737 734 732 730 728 725 721 718 715 711 707 703 698 690 684 678 671 658 651 644 638 631 628 637 643 649 656 659 665 672 681 689 698
724 726 729 732 735 736 736 735 734 733 732 729 728 725 722 719 716 713 710 706 702 698 694 688 680 674 666 657 647 639 632 625 624 630 636 642 647 652 662 671 679 688 698
720 722 725 728 730 731 731 730 729 728 726 725 723 720 717 713 711 709 705 701 697 693 688 681 675 670 662 656 646 637 627 621 620 624 633 639 640 648 658 665 672 682 694
717 719 721 724 725 726 726 726 725 724 722 720 719 716 713 708 705 705 701 697 693 690 685 678 672 665 659 650 640 633 630 621 618 625 630 634 637 643 653 659 669 679 688
713 715 717 719 720 721 721 721 720 719 718 717 715 713 708 705 701 699 697 694 689 685 681 676 672 667 659 649 644 635 627 621 616 616 622 626 630 636 645 656 665 675 685
709 711 713 715 715 716 716 716 715 714 713 712 711 708 704 702 697 695 693 690 686 681 677 673 668 663 660 652 643 633 625 619 615 612 617 619 624 633 642 651 661 671 682
706 707 709 710 711 712 713 712 711 709 709 708 706 704 700 697 694 691 689 686 684 678 674 670 665 661 657 649 637 629 622 618 611 606 611 616 622 629 637 646 657 667 677
703 704 706 707 708 709 709 708 706 704 705 704 701 698 695 692 689 687 685 684 682 678 673 669 664 660 655 646 637 630 623 613 608 605 608 614 619 627 633 644 655 665 673
700 702 704 704 705 706 706 703 701 701 701 701 697 695 691 688 686 683 681 679 678 675 670 666 661 656 652 645 636 627 619 612 605 601 604 610 616 622 630 640 652 660 669
697 700 702 703 703 703 702 700 699 699 698 695 693 692 688 685 683 680 678 675 673 669 665 662 656 652 649 642 634 626 619 612 605 598 595 601 610 618 627 638 648 657 667
696 698 699 701 701 701 699 697 696 695 693 692 689 687 685 682 680 677 674 672 670 665 661 656 655 651 647 640 634 626 618 610 604 599 593 597 605 614 624 634 643 652 663
695 697 698 698 698 697 696 695 693 692 690 689 686 683 682 679 677 674 671 669 667 664 661 656 652 648 643 639 633 626 620 611 605 599 594 595 602 610 620 629 638 648 658
694 696 697 697 696 695 694 692 690 689 688 686 682 681 679 676 674 671 668 664 662 659 656 652 648 645 640 636 630 624 616 609 602 595 592 595 600 609 617 627 635 644 654
693 695 696 695 694 693 691 689 688 687 684 683 679 679 677 674 671 669 666 662 659 655 651 649 647 643 639 634 626 619 611 604 599 593 591 595 603 607 616 627 635 644 652
693 694 694 693 691 689 688 688 686 684 681 679 678 677 675 672 669 666 663 660 657 654 651 648 644 641 637 631 625 618 611 604 594 591 591 594 600 605 615 625 633 642 648